Wind_Speed
10 11 10 10 10 10 9 9 9 10 10 10 11 11 11 11 10 10 9 9 8 8 8 8 8 7 7 8 8 8 8 8 8 8 8 8 7 7 6 6 7 7 8
11 12 12 12 12 12 11 11 10 11 11 11 12 12 12 11 11 10 10 9 9 8 8 8 8 8 7 8 8 8 8 9 9 8 8 8 7 7 7 7 7 8 8
13 13 13 13 13 13 13 12 12 12 12 12 12 12 12 12 11 10 10 9 9 8 8 7 7 7 7 7 8 8 9 9 9 8 8 8 8 8 8 7 8 8 9
15 14 14 14 14 14 14 14 13 12 12 12 12 12 12 12 11 10 9 8 7 7 6 6 6 6 7 7 8 8 8 9 9 8 8 9 9 9 9 8 9 9 9
17 16 15 15 15 15 15 14 13 12 12 12 12 12 11 10 10 9 8 7 6 5 5 5 5 5 6 6 7 8 9 9 9 9 9 9 10 10 9 9 9 9 10
17 17 16 16 16 16 15 14 13 12 12 12 12 11 10 9 8 8 7 6 5 4 4 4 5 5 6 6 7 8 9 9 10 10 10 10 10 10 10 10 10 10 10
16 16 16 16 16 16 15 14 13 12 12 11 11 11 10 9 7 6 5 5 4 4 4 4 5 5 6 7 8 8 9 9 10 10 10 11 11 11 11 11 11 10 10
14 15 15 16 16 16 15 14 13 12 11 11 11 10 9 8 7 5 5 5 5 4 4 5 5 6 7 8 9 9 9 9 10 9 10 11 11 11 11 11 11 11 10
13 14 14 15 16 16 15 14 13 12 11 11 11 10 9 7 6 5 5 5 5 5 5 5 6 6 8 9 9 9 9 9 9 9 9 10 10 11 11 11 11 11 11
12 13 14 14 15 15 14 13 12 12 11 11 11 10 9 7 6 5 5 5 6 6 6 6 6 8 9 10 10 10 10 10 9 8 9 9 10 10 10 11 11 11 11
12 13 13 14 15 14 13 13 12 12 12 11 11 10 8 7 6 6 6 6 7 7 7 7 8 9 10 10 10 10 11 10 9 8 9 9 9 9 10 10 10 11 11
12 12 13 14 14 13 13 12 12 12 12 11 10 9 8 7 7 7 7 8 8 9 9 9 9 10 11 11 11 12 12 11 9 8 10 10 10 10 10 10 11 11 12
12 12 12 13 13 13 13 12 12 11 11 11 10 9 9 8 8 8 9 9 10 10 10 11 11 12 13 13 13 13 13 12 10 10 10 10 11 10 10 11 12 12 12
12 12 12 12 13 13 13 12 11 11 11 10 10 10 10 9 9 9 10 10 11 12 12 13 14 14 15 16 15 15 15 14 12 11 11 11 11 12 12 12 12 13 13
13 12 12 12 12 12 13 12 11 11 11 10 10 11 11 11 11 11 11 12 13 13 14 15 16 17 18 18 18 17 17 16 16 13 13 13 14 14 13 13 14 14 15
14 12 12 13 13 13 13 13 12 12 12 11 11 11 11 11 12 12 13 14 15 16 17 18 19 20 21 22 22 21 20 19 19 17 16 16 16 16 15 15 16 16 17
14 13 13 13 14 14 14 14 13 13 13 13 13 13 13 13 14 15 15 17 18 19 20 22 23 23 24 25 25 24 23 23 22 21 19 18 18 18 18 18 18 19 19
14 13 14 15 15 15 15 15 15 15 15 15 15 15 15 16 16 17 18 19 21 22 24 25 26 27 28 28 27 26 26 26 25 24 22 21 22 22 21 21 21 21 22
17 15 16 16 16 17 17 17 17 17 17 17 17 17 18 19 20 20 21 22 23 25 27 28 29 30 30 30 30 29 29 29 28 27 25 23 24 24 24 24 25 25 26
21 19 18 18 18 19 19 19 19 19 20 20 21 21 21 22 23 23 24 25 26 27 29 31 31 31 31 32 31 30 30 29 29 28 28 27 27 27 27 27 28 30 30
23 20 19 20 20 20 20 21 21 22 23 24 25 25 25 26 26 27 27 27 28 29 30 31 32 32 31 31 31 30 30 29 28 28 28 29 29 30 30 31 32 33 34
26 23 21 21 21 21 21 23 25 26 27 27 28 29 29 29 29 29 30 31 32 32 32 31 30 31 32 32 30 30 30 30 29 29 29 30 30 32 33 34 35 36 37
26 24 23 23 23 23 23 23 26 28 29 29 30 31 32 33 33 32 33 34 35 35 32 31 30 31 31 31 31 29 30 30 29 28 29 30 31 33 35 36 38 39 41
27 26 24 24 25 26 25 26 27 28 30 31 33 35 36 34 34 35 34 36 37 36 33 30 29 31 32 30 28 29 30 30 31 31 32 33 34 36 37 39 41 42 44
29 28 27 27 28 28 29 29 31 32 33 34 35 36 37 37 37 36 38 38 37 37 34 32 30 29 30 29 28 29 31 32 34 35 35 36 38 39 40 42 44 46 47
30 31 30 30 31 31 31 32 34 35 37 37 37 38 38 38 36 36 38 38 37 36 35 33 32 32 32 32 32 33 33 34 36 38 40 40 41 42 43 45 47 50 51
Wind_Direction
246 241 236 234 231 226 226 230 237 243 246 248 249 248 246 245 245 245 245 247 249 250 251 253 256 261 267 273 278 281 282 280 275 271 270 269 270 274 278 280 281 280 281
253 250 246 242 239 236 233 233 238 244 248 250 250 249 249 248 248 250 251 253 255 257 259 263 267 272 279 283 285 285 284 282 278 274 271 269 270 274 278 280 282 285 283
255 253 251 247 244 240 237 236 239 243 247 250 249 249 251 251 251 252 254 257 261 266 270 273 278 283 289 291 291 289 286 282 279 277 274 274 274 276 279 281 284 287 286
263 258 253 248 245 243 241 239 239 241 245 249 250 250 252 252 252 254 257 261 267 274 279 286 293 297 299 298 295 291 287 284 282 279 277 277 279 280 281 283 285 289 290
265 259 254 249 246 244 242 240 238 240 243 247 248 249 251 252 253 255 259 265 273 281 289 298 305 308 308 304 299 293 288 286 283 280 277 279 281 283 283 283 286 291 293
266 260 253 248 246 243 240 238 237 239 241 244 245 246 247 250 252 256 262 270 279 288 299 309 317 320 317 313 308 302 296 292 287 282 279 280 282 283 284 284 286 289 292
267 260 251 248 245 240 237 235 236 237 238 240 242 242 244 246 250 255 263 272 280 290 304 316 324 329 330 324 316 310 305 298 293 289 287 286 285 284 285 286 287 289 289
268 259 250 245 241 237 235 235 234 234 235 237 236 237 240 243 247 253 262 272 280 292 307 320 330 336 334 329 324 319 313 304 297 292 288 289 290 288 288 287 286 287 285
271 259 248 240 237 234 231 230 230 230 230 231 231 233 237 241 245 250 261 272 282 294 307 320 329 334 336 334 330 326 319 311 302 296 291 291 292 291 288 286 285 284 284
274 259 245 238 234 230 226 224 223 224 224 225 228 231 235 240 246 252 262 274 285 296 305 315 322 329 334 335 334 330 324 317 312 306 293 289 290 290 288 286 284 284 284
273 257 243 236 233 228 225 221 217 216 218 221 226 230 235 242 250 259 266 275 286 296 304 313 321 327 331 332 333 331 327 323 319 306 291 289 289 288 287 286 285 284 284
274 257 243 235 230 224 222 218 215 215 217 222 227 232 238 246 256 264 270 278 287 295 301 309 317 325 328 328 328 327 325 322 318 302 283 282 288 286 285 284 283 283 284
272 258 242 234 227 220 216 214 214 217 220 224 230 236 244 252 262 270 274 281 289 295 301 306 311 317 321 322 323 323 322 319 312 302 292 287 287 286 284 282 282 283 284
268 257 242 230 224 219 215 215 217 220 223 228 235 242 251 260 268 274 276 282 289 295 299 303 306 310 313 315 316 317 316 313 310 302 291 286 287 287 285 283 282 283 284
262 255 243 229 225 222 220 220 221 225 230 237 244 250 256 264 271 275 278 283 288 291 295 298 301 304 307 308 308 310 307 305 304 301 293 286 283 283 283 282 283 282 282
254 252 244 234 229 226 226 227 228 234 238 242 249 256 260 267 273 277 281 284 286 289 292 294 296 298 301 303 303 303 302 299 295 294 289 285 281 281 280 279 280 280 280
250 250 246 240 235 234 233 234 236 241 246 250 254 259 263 266 272 276 280 283 285 287 288 290 292 294 295 296 297 298 297 294 291 288 284 281 281 281 279 279 280 279 278
246 252 248 243 241 240 240 242 244 246 250 254 257 260 262 265 268 272 276 281 284 286 287 286 288 290 292 292 292 292 292 291 287 285 283 279 279 280 278 280 279 279 278
242 248 250 247 247 247 247 247 248 251 255 258 261 265 267 268 267 270 275 280 285 287 287 286 287 288 289 289 288 288 288 287 283 280 280 279 280 279 280 281 279 280 279
237 244 249 249 250 250 253 253 252 256 259 261 264 265 268 269 268 272 276 281 285 288 287 287 288 290 287 287 288 287 287 285 279 277 277 277 278 278 278 280 280 281 282
233 241 247 250 253 254 256 257 257 258 260 264 267 267 270 271 271 274 277 282 285 287 287 287 289 291 290 289 286 285 286 283 278 276 276 276 278 278 278 279 280 282 282
231 237 246 251 254 256 261 261 259 260 262 266 268 269 270 272 274 277 279 283 284 285 288 290 289 293 291 288 286 285 286 284 279 278 276 277 277 277 278 280 282 282 283
231 235 244 250 256 260 264 267 267 264 264 267 270 269 271 274 276 279 283 284 285 287 290 289 294 297 296 291 285 286 286 283 281 279 278 278 278 278 280 281 282 283 282
235 238 246 252 257 263 269 269 268 269 269 269 270 271 271 274 279 280 286 285 285 287 290 291 295 299 296 294 288 287 286 283 284 283 280 278 279 280 280 280 281 282 282
238 243 249 253 258 263 267 269 269 268 270 270 271 275 275 276 282 283 285 286 285 287 291 293 295 298 298 294 290 288 287 286 283 281 281 281 280 280 280 280 281 281 281
244 247 249 253 258 261 265 267 269 270 270 271 273 278 279 280 284 288 290 289 289 290 294 295 296 298 299 294 290 289 287 286 284 282 281 280 280 280 279 279 280 281 281
Height
5897 5897 5898 5899 5899 5900 5900 5901 5901 5902 5902 5903 5903 5903 5904 5904 5904 5904 5904 5904 5904 5904 5904 5904 5904 5904 5904 5904 5904 5903 5903 5903 5903 5903 5903 5903 5903 5903 5904 5904 5905 5905 5906
5896 5896 5897 5898 5898 5899 5899 5900 5900 5901 5901 5902 5902 5903 5903 5903 5903 5903 5903 5903 5903 5903 5903 5904 5904 5903 5903 5903 5903 5902 5902 5902 5902 5902 5902 5902 5902 5903 5903 5903 5904 5904 5905
5894 5895 5895 5896 5897 5897 5898 5898 5899 5899 5900 5901 5901 5901 5902 5902 5902 5902 5902 5902 5902 5903 5903 5903 5903 5903 5903 5902 5902 5902 5901 5901 5901 5901 5901 5901 5902 5902 5902 5903 5903 5903 5904
5892 5893 5894 5894 5895 5895 5896 5896 5897 5898 5899 5899 5900 5900 5901 5901 5901 5901 5901 5901 5901 5902 5902 5902 5902 5902 5902 5902 5901 5901 5901 5900 5900 5900 5901 5900 5900 5901 5901 5902 5902 5902 5902
5891 5892 5892 5892 5893 5893 5894 5895 5896 5896 5897 5898 5899 5899 5899 5900 5900 5900 5901 5901 5901 5901 5901 5901 5901 5901 5901 5901 5901 5900 5900 5900 5900 5900 5900 5900 5900 5900 5900 5900 5901 5901 5901
5890 5890 5890 5891 5891 5891 5892 5893 5894 5895 5896 5897 5898 5898 5899 5899 5899 5900 5900 5900 5900 5900 5900 5901 5901 5901 5901 5900 5900 5899 5899 5899 5898 5898 5899 5899 5898 5898 5898 5899 5899 5899 5899
5888 5888 5888 5889 5889 5890 5890 5891 5892 5893 5894 5896 5897 5897 5898 5898 5899 5899 5899 5899 5900 5900 5900 5900 5900 5900 5900 5899 5898 5898 5897 5897 5897 5897 5896 5897 5897 5897 5897 5897 5897 5897 5897
5886 5886 5886 5887 5887 5888 5889 5890 5891 5892 5893 5895 5895 5896 5897 5898 5898 5898 5899 5899 5899 5899 5899 5899 5899 5899 5899 5898 5897 5896 5896 5895 5895 5895 5895 5895 5895 5895 5895 5895 5895 5895 5895
5884 5884 5884 5885 5886 5886 5887 5888 5890 5891 5892 5894 5895 5896 5896 5897 5898 5898 5898 5898 5898 5899 5899 5899 5898 5898 5898 5897 5896 5895 5894 5893 5893 5893 5893 5892 5893 5893 5893 5893 5893 5893 5893
5882 5882 5882 5883 5884 5885 5886 5887 5888 5890 5891 5893 5894 5895 5896 5897 5897 5897 5897 5898 5898 5898 5898 5898 5898 5897 5897 5896 5895 5894 5893 5892 5891 5891 5891 5890 5891 5891 5891 5891 5891 5891 5891
5880 5880 5880 5881 5882 5883 5884 5886 5887 5889 5890 5892 5893 5894 5895 5896 5896 5897 5897 5897 5897 5897 5897 5897 5897 5896 5895 5895 5894 5892 5891 5890 5890 5890 5889 5889 5889 5889 5889 5888 5889 5889 5889
5878 5878 5878 5879 5881 5882 5883 5884 5886 5888 5889 5891 5892 5893 5894 5895 5895 5896 5896 5896 5896 5896 5896 5896 5895 5895 5894 5893 5892 5891 5890 5889 5889 5888 5887 5887 5887 5887 5886 5886 5886 5886 5886
5876 5876 5877 5878 5879 5881 5882 5883 5885 5887 5889 5890 5891 5892 5893 5894 5894 5894 5895 5895 5895 5895 5894 5894 5894 5893 5893 5892 5891 5890 5888 5888 5887 5887 5886 5886 5885 5884 5884 5884 5884 5884 5884
5874 5874 5875 5876 5878 5879 5881 5882 5884 5886 5888 5889 5890 5891 5892 5892 5893 5893 5893 5893 5893 5893 5893 5892 5892 5891 5891 5890 5889 5888 5887 5886 5885 5885 5884 5883 5883 5882 5882 5881 5881 5881 5881
5872 5873 5874 5875 5876 5878 5880 5881 5883 5885 5886 5888 5888 5889 5890 5890 5891 5891 5891 5891 5891 5891 5890 5890 5890 5889 5888 5888 5887 5886 5885 5884 5883 5883 5881 5880 5880 5880 5879 5879 5878 5878 5877
5870 5871 5872 5874 5875 5877 5878 5879 5881 5883 5884 5886 5887 5887 5888 5888 5888 5888 5888 5889 5888 5888 5888 5887 5887 5886 5885 5884 5884 5883 5881 5880 5880 5879 5879 5878 5877 5877 5876 5875 5874 5874 5873
5868 5869 5870 5872 5873 5875 5876 5878 5879 5881 5882 5884 5884 5885 5885 5886 5886 5886 5886 5886 5885 5885 5884 5884 5883 5882 5881 5881 5880 5879 5878 5876 5875 5875 5874 5873 5873 5873 5872 5871 5870 5870 5869
5865 5867 5868 5870 5872 5873 5874 5876 5877 5878 5879 5880 5881 5882 5882 5883 5883 5883 5883 5883 5882 5881 5880 5879 5879 5878 5876 5876 5875 5874 5873 5872 5870 5869 5869 5867 5868 5867 5866 5866 5866 5865 5864
5862 5864 5866 5867 5869 5871 5872 5873 5874 5875 5876 5877 5878 5878 5879 5879 5879 5879 5879 5879 5878 5877 5876 5875 5874 5872 5871 5870 5869 5868 5867 5866 5864 5864 5863 5863 5863 5862 5861 5860 5860 5859 5858
5858 5861 5862 5864 5866 5867 5869 5870 5871 5872 5872 5873 5874 5874 5875 5875 5875 5874 5874 5874 5873 5872 5870 5869 5868 5866 5864 5863 5862 5861 5860 5859 5858 5858 5857 5857 5857 5856 5855 5854 5853 5853 5852
5853 5856 5858 5860 5862 5863 5865 5866 5866 5867 5868 5869 5869 5869 5870 5870 5870 5869 5869 5869 5868 5866 5865 5863 5861 5860 5858 5856 5855 5854 5853 5852 5852 5851 5851 5850 5850 5849 5848 5848 5846 5845 5844
5848 5851 5853 5855 5857 5859 5860 5861 5862 5862 5863 5864 5864 5865 5864 5864 5864 5863 5863 5863 5861 5860 5858 5856 5854 5853 5851 5849 5848 5847 5846 5846 5845 5845 5844 5843 5843 5842 5841 5840 5839 5837 5836
5842 5845 5848 5850 5852 5854 5856 5856 5856 5856 5857 5859 5859 5859 5858 5857 5857 5856 5856 5856 5855 5854 5851 5849 5847 5846 5844 5841 5840 5840 5839 5839 5838 5838 5837 5836 5836 5835 5833 5832 5830 5828 5826
5837 5840 5843 5845 5847 5849 5850 5851 5851 5851 5852 5852 5852 5852 5851 5850 5850 5849 5848 5848 5848 5846 5843 5840 5839 5839 5838 5836 5835 5834 5833 5832 5831 5830 5830 5829 5828 5826 5825 5823 5821 5819 5817
5831 5835 5838 5840 5842 5843 5845 5846 5845 5845 5845 5845 5845 5844 5844 5844 5843 5842 5841 5839 5838 5837 5835 5834 5833 5832 5831 5830 5829 5827 5825 5824 5823 5822 5821 5820 5819 5817 5815 5813 5811 5809 5807
5826 5830 5832 5834 5835 5837 5838 5839 5839 5838 5837 5837 5837 5837 5836 5836 5835 5834 5832 5830 5830 5829 5828 5827 5826 5825 5824 5822 5821 5820 5818 5816 5815 5813 5812 5810 5809 5807 5805 5803 5800 5797 5795